Time,TemperatureF,DewpointF,PressureIn,WindDirection,WindDirectionDegrees,WindSpeedMPH,WindSpeedGustMPH,Humidity,HourlyPrecipIn,Conditions,Clouds,dailyrainin,SoftwareType,DateUTC
2013-03-18 00:11:00,63.4,60.0,0.00,ESE,117,3.0,-999.0,89,-99.99,,,0.00,weatherlink.com 1.10,2013-03-18 05:11:00,
2013-03-18 00:26:00,62.9,60.0,0.00,East,100,1.0,-999.0,90,-99.99,,,0.00,weatherlink.com 1.10,2013-03-18 05:26:00,
2013-03-18 00:41:00,62.7,60.0,0.00,ESE,102,0.0,-999.0,90,-99.99,,,0.00,weatherlink.com 1.10,2013-03-18 05:41:00,
2013-03-18 00:56:00,62.7,60.0,0.00,ESE,108,2.0,-999.0,90,-99.99,,,0.00,weatherlink.com 1.10,2013-03-18 05:56:00,
2013-03-18 01:11:00,62.9,60.0,0.00,East,98,2.0,-999.0,90,-99.99,,,0.00,weatherlink.com 1.10,2013-03-18 06:11:00,
2013-03-18 01:26:00,63.0,60.0,0.00,ESE,122,3.0,-999.0,89,-99.99,,,0.00,weatherlink.com 1.10,2013-03-18 06:26:00,
2013-03-18 01:56:00,62.5,60.0,0.00,ESE,114,2.0,-999.0,90,-99.99,,,0.00,weatherlink.com 1.10,2013-03-18 06:56:00,
2013-03-18 02:11:00,62.3,59.0,0.00,ESE,115,4.0,-999.0,90,-99.99,,,0.00,weatherlink.com 1.10,2013-03-18 07:11:00,
2013-03-18 02:26:00,62.4,60.0,0.00,East,94,1.0,-999.0,90,-99.99,,,0.00,weatherlink.com 1.10,2013-03-18 07:26:00,
2013-03-18 02:41:00,62.7,60.0,0.00,East,93,2.0,-999.0,90,-99.99,,,0.00,weatherlink.com 1.10,2013-03-18 07:41:00,
2013-03-18 02:56:00,62.6,60.0,0.00,SE,132,1.0,-999.0,91,-99.99,,,0.00,weatherlink.com 1.10,2013-03-18 07:56:00,
2013-03-18 03:11:00,62.5,60.0,0.00,ESE,121,1.0,-999.0,91,-99.99,,,0.00,weatherlink.com 1.10,2013-03-18 08:11:00,
2013-03-18 03:26:00,62.5,60.0,0.00,ESE,117,2.0,-999.0,91,-99.99,,,0.00,weatherlink.com 1.10,2013-03-18 08:26:00,
2013-03-18 03:41:00,62.6,60.0,0.00,East,92,4.0,-999.0,91,-99.99,,,0.00,weatherlink.com 1.10,2013-03-18 08:41:00,
2013-03-18 03:56:00,63.0,60.0,0.00,East,101,2.0,-999.0,91,-99.99,,,0.00,weatherlink.com 1.10,2013-03-18 08:56:00,
2013-03-18 04:11:00,63.3,61.0,0.00,SE,125,3.0,-999.0,91,-99.99,,,0.00,weatherlink.com 1.10,2013-03-18 09:11:00,
2013-03-18 04:26:00,63.5,61.0,0.00,SE,140,10.0,-999.0,91,-99.99,,,0.00,weatherlink.com 1.10,2013-03-18 09:26:00,
2013-03-18 04:41:00,63.6,61.0,0.00,SE,142,9.0,-999.0,92,-99.99,,,0.00,weatherlink.com 1.10,2013-03-18 09:41:00,
2013-03-18 04:56:00,64.1,62.0,0.00,SE,127,4.0,-999.0,92,-99.99,,,0.00,weatherlink.com 1.10,2013-03-18 09:56:00,
2013-03-18 05:11:00,64.5,62.0,0.00,ESE,107,3.0,-999.0,92,-99.99,,,0.00,weatherlink.com 1.10,2013-03-18 10:11:00,
2013-03-18 05:26:00,64.7,62.0,0.00,ESE,103,3.0,-999.0,92,-99.99,,,0.00,weatherlink.com 1.10,2013-03-18 10:26:00,
2013-03-18 05:41:00,64.9,62.0,0.00,East,89,2.0,-999.0,91,-99.99,,,0.00,weatherlink.com 1.10,2013-03-18 10:41:00,
2013-03-18 06:11:00,65.3,63.0,0.00,ESE,112,3.0,-999.0,91,-99.99,,,0.00,weatherlink.com 1.10,2013-03-18 11:11:00,
2013-03-18 06:26:00,65.3,63.0,0.00,East,98,2.0,-999.0,91,-99.99,,,0.00,weatherlink.com 1.10,2013-03-18 11:26:00,
2013-03-18 06:41:00,65.4,63.0,0.00,ESE,121,2.0,-999.0,91,-99.99,,,0.00,weatherlink.com 1.10,2013-03-18 11:41:00,
2013-03-18 06:56:00,65.4,63.0,0.00,ESE,106,2.0,-999.0,91,-99.99,,,0.00,weatherlink.com 1.10,2013-03-18 11:56:00,
2013-03-18 07:11:00,65.5,63.0,0.00,ESE,116,3.0,-999.0,91,-99.99,,,0.00,weatherlink.com 1.10,2013-03-18 12:11:00,
2013-03-18 07:26:00,65.6,63.0,0.00,East,96,2.0,-999.0,91,-99.99,,,0.00,weatherlink.com 1.10,2013-03-18 12:26:00,
2013-03-18 07:41:00,65.9,63.0,0.00,East,96,3.0,-999.0,91,-99.99,,,0.00,weatherlink.com 1.10,2013-03-18 12:41:00,
2013-03-18 07:56:00,66.1,64.0,0.00,East,87,3.0,-999.0,91,-99.99,,,0.00,weatherlink.com 1.10,2013-03-18 12:56:00,
2013-03-18 08:14:00,66.5,64.0,0.00,ESE,115,1.0,-999.0,91,-99.99,,,0.00,weatherlink.com 1.10,2013-03-18 13:14:00,
2013-03-18 08:26:00,66.8,64.0,0.00,SE,128,2.0,-999.0,90,-99.99,,,0.00,weatherlink.com 1.10,2013-03-18 13:26:00,
2013-03-18 08:41:00,67.4,65.0,0.00,East,96,1.0,-999.0,90,-99.99,,,0.00,weatherlink.com 1.10,2013-03-18 13:41:00,
2013-03-18 08:57:00,68.4,65.0,0.00,East,84,1.0,-999.0,89,-99.99,,,0.00,weatherlink.com 1.10,2013-03-18 13:57:00,
2013-03-18 09:12:00,69.3,66.0,0.00,ESE,107,3.0,-999.0,89,-99.99,,,0.00,weatherlink.com 1.10,2013-03-18 14:12:00,
2013-03-18 09:27:00,70.1,67.0,0.00,SE,133,10.0,-999.0,88,-99.99,,,0.00,weatherlink.com 1.10,2013-03-18 14:27:00,
2013-03-18 09:42:00,70.4,67.0,0.00,SE,136,3.0,-999.0,88,-99.99,,,0.00,weatherlink.com 1.10,2013-03-18 14:42:00,
2013-03-18 09:57:00,70.9,67.0,0.00,ESE,123,1.0,-999.0,87,-99.99,,,0.00,weatherlink.com 1.10,2013-03-18 14:57:00,
2013-03-18 10:12:00,71.5,68.0,0.00,SE,139,8.0,-999.0,87,-99.99,,,0.00,weatherlink.com 1.10,2013-03-18 15:12:00,
2013-03-18 10:27:00,72.2,68.0,0.00,SSE,155,13.0,-999.0,86,-99.99,,,0.00,weatherlink.com 1.10,2013-03-18 15:27:00,
2013-03-18 10:42:00,72.6,68.0,0.00,SE,140,10.0,-999.0,86,-99.99,,,0.00,weatherlink.com 1.10,2013-03-18 15:42:00,
2013-03-18 10:57:00,73.3,69.0,0.00,South,170,11.0,-999.0,86,-99.99,,,0.00,weatherlink.com 1.10,2013-03-18 15:57:00,
2013-03-18 11:12:00,73.7,69.0,0.00,SSE,162,12.0,-999.0,85,-99.99,,,0.00,weatherlink.com 1.10,2013-03-18 16:12:00,
2013-03-18 11:27:00,73.4,69.0,0.00,South,179,9.0,-999.0,85,-99.99,,,0.00,weatherlink.com 1.10,2013-03-18 16:27:00,
2013-03-18 11:42:00,73.2,69.0,0.00,SSW,200,8.0,-999.0,86,-99.99,,,0.00,weatherlink.com 1.10,2013-03-18 16:42:00,
2013-03-18 11:57:00,73.2,69.0,0.00,South,185,12.0,-999.0,85,-99.99,,,0.00,weatherlink.com 1.10,2013-03-18 16:57:00,
2013-03-18 12:12:00,72.5,68.0,0.00,SSW,199,12.0,-999.0,86,-99.99,,,0.00,weatherlink.com 1.10,2013-03-18 17:12:00,
2013-03-18 12:27:00,72.3,68.0,0.00,South,182,11.0,-999.0,87,-99.99,,,0.00,weatherlink.com 1.10,2013-03-18 17:27:00,
2013-03-18 12:42:00,72.8,68.0,0.00,SSW,192,16.0,-999.0,86,-99.99,,,0.00,weatherlink.com 1.10,2013-03-18 17:42:00,
2013-03-18 12:57:00,73.0,69.0,0.00,South,190,14.0,-999.0,86,-99.99,,,0.00,weatherlink.com 1.10,2013-03-18 17:57:00,
2013-03-18 13:12:00,72.1,68.0,27.43,South,189,15.0,-999.0,86,-99.99,,,0.00,weatherlink.com 1.10,2013-03-18 18:12:00,
2013-03-18 13:27:00,72.1,68.0,27.43,SSW,196,13.0,-999.0,86,-99.99,,,0.00,weatherlink.com 1.10,2013-03-18 18:27:00,
2013-03-18 13:42:00,72.4,68.0,27.43,SSW,203,16.0,-999.0,86,-99.99,,,0.00,weatherlink.com 1.10,2013-03-18 18:42:00,
2013-03-18 13:57:00,71.8,68.0,27.43,SSW,197,13.0,-999.0,87,-99.99,,,0.00,weatherlink.com 1.10,2013-03-18 18:57:00,
2013-03-18 14:12:00,72.0,68.0,27.43,SSW,192,15.0,-999.0,88,-99.99,,,0.00,weatherlink.com 1.10,2013-03-18 19:12:00,
2013-03-18 14:27:00,72.2,68.0,27.43,SSW,197,14.0,-999.0,87,-99.99,,,0.00,weatherlink.com 1.10,2013-03-18 19:27:00,
2013-03-18 14:42:00,71.9,68.0,27.43,SSW,194,15.0,-999.0,88,-99.99,,,0.00,weatherlink.com 1.10,2013-03-18 19:42:00,
2013-03-18 15:12:00,72.3,69.0,26.54,SSW,193,13.0,-999.0,88,-99.99,,,0.00,weatherlink.com 1.10,2013-03-18 20:12:00,
2013-03-18 15:27:00,72.1,68.0,26.54,SSW,201,9.0,-999.0,87,-99.99,,,0.00,weatherlink.com 1.10,2013-03-18 20:27:00,
2013-03-18 15:42:00,71.5,68.0,27.56,South,184,11.0,-999.0,88,-99.99,,,0.00,weatherlink.com 1.10,2013-03-18 20:42:00,
2013-03-18 15:57:00,71.8,68.0,27.49,SSW,201,10.0,-999.0,88,-99.99,,,0.00,weatherlink.com 1.10,2013-03-18 20:57:00,
2013-03-18 16:12:00,71.9,69.0,27.49,SSW,198,11.0,-999.0,89,-99.99,,,0.00,weatherlink.com 1.10,2013-03-18 21:12:00,
2013-03-18 16:27:00,72.0,68.0,27.49,SSW,201,10.0,-999.0,88,-99.99,,,0.00,weatherlink.com 1.10,2013-03-18 21:27:00,
2013-03-18 16:42:00,71.9,68.0,27.49,SSW,197,14.0,-999.0,88,-99.99,,,0.00,weatherlink.com 1.10,2013-03-18 21:42:00,
2013-03-18 16:57:00,71.7,68.0,26.96,SSW,199,9.0,-999.0,88,-99.99,,,0.00,weatherlink.com 1.10,2013-03-18 21:57:00,
2013-03-18 17:12:00,73.3,69.0,26.96,SSE,151,10.0,-999.0,87,-99.99,,,0.00,weatherlink.com 1.10,2013-03-18 22:12:00,
2013-03-18 17:27:00,74.1,69.0,26.96,South,182,13.0,-999.0,85,-99.99,,,0.00,weatherlink.com 1.10,2013-03-18 22:27:00,
2013-03-18 17:42:00,72.2,68.0,26.96,SSW,203,12.0,-999.0,87,-99.99,,,0.00,weatherlink.com 1.10,2013-03-18 22:42:00,
2013-03-18 17:57:00,70.1,67.0,26.34,SSW,200,12.0,-999.0,89,-99.99,,,0.00,weatherlink.com 1.10,2013-03-18 22:57:00,
2013-03-18 18:12:00,70.3,67.0,26.34,South,179,7.0,-999.0,90,-99.99,,,0.00,weatherlink.com 1.10,2013-03-18 23:12:00,
2013-03-18 18:27:00,70.1,67.0,26.34,SSW,210,2.0,-999.0,90,-99.99,,,0.00,weatherlink.com 1.10,2013-03-18 23:27:00,
2013-03-18 18:42:00,69.3,66.0,26.26,SSW,210,0.0,-999.0,90,-99.99,,,0.00,weatherlink.com 1.10,2013-03-18 23:42:00,
2013-03-18 18:57:00,69.9,67.0,26.26,SE,144,1.0,-999.0,91,-99.99,,,0.00,weatherlink.com 1.10,2013-03-18 23:57:00,
2013-03-18 19:12:00,70.9,68.0,26.26,SSE,157,2.0,-999.0,91,-99.99,,,0.00,weatherlink.com 1.10,2013-03-19 00:12:00,
2013-03-18 19:27:00,70.5,68.0,26.26,South,169,0.0,-999.0,90,-99.99,,,0.00,weatherlink.com 1.10,2013-03-19 00:27:00,
2013-03-18 19:42:00,71.1,68.0,26.26,ESE,119,0.0,-999.0,90,-99.99,,,0.00,weatherlink.com 1.10,2013-03-19 00:42:00,
2013-03-18 19:57:00,70.9,68.0,26.26,ESE,119,0.0,-999.0,90,-99.99,,,0.00,weatherlink.com 1.10,2013-03-19 00:57:00,
2013-03-18 20:12:00,71.0,68.0,26.26,ESE,118,0.0,-999.0,90,-99.99,,,0.00,weatherlink.com 1.10,2013-03-19 01:12:00,
2013-03-18 20:27:00,71.2,68.0,26.26,ESE,118,0.0,-999.0,90,-99.99,,,0.00,weatherlink.com 1.10,2013-03-19 01:27:00,
2013-03-18 20:42:00,71.2,68.0,26.26,ESE,118,0.0,-999.0,90,-99.99,,,0.00,weatherlink.com 1.10,2013-03-19 01:42:00,
2013-03-18 20:57:00,71.2,68.0,26.26,SE,127,2.0,-999.0,90,-99.99,,,0.00,weatherlink.com 1.10,2013-03-19 01:57:00,
2013-03-18 21:12:00,71.1,68.0,26.26,SE,127,3.0,-999.0,90,-99.99,,,0.00,weatherlink.com 1.10,2013-03-19 02:12:00,
2013-03-18 21:27:00,71.0,68.0,26.26,SE,130,4.0,-999.0,90,-99.99,,,0.00,weatherlink.com 1.10,2013-03-19 02:27:00,
2013-03-18 21:42:00,70.4,68.0,26.26,ESE,114,1.0,-999.0,91,-99.99,,,0.00,weatherlink.com 1.10,2013-03-19 02:42:00,
2013-03-18 21:57:00,70.5,68.0,26.26,SSE,147,3.0,-999.0,91,-99.99,,,0.00,weatherlink.com 1.10,2013-03-19 02:57:00,
2013-03-18 22:12:00,70.3,68.0,26.26,SSE,147,3.0,-999.0,91,-99.99,,,0.00,weatherlink.com 1.10,2013-03-19 03:12:00,
2013-03-18 22:27:00,70.1,67.0,26.26,SSE,163,6.0,-999.0,91,-99.99,,,0.00,weatherlink.com 1.10,2013-03-19 03:27:00,
2013-03-18 22:42:00,69.7,67.0,26.26,SSE,151,4.0,-999.0,91,-99.99,,,0.00,weatherlink.com 1.10,2013-03-19 03:42:00,
2013-03-18 22:57:00,69.4,67.0,26.26,SSE,153,4.0,-999.0,92,-99.99,,,0.00,weatherlink.com 1.10,2013-03-19 03:57:00,
2013-03-18 23:12:00,68.8,66.0,26.26,SSE,155,0.0,-999.0,92,-99.99,,,0.00,weatherlink.com 1.10,2013-03-19 04:12:00,
2013-03-18 23:27:00,66.9,64.0,26.26,NNE,12,6.0,-999.0,91,-99.99,,,0.00,weatherlink.com 1.10,2013-03-19 04:27:00,
2013-03-18 23:42:00,66.1,64.0,26.26,NNW,342,5.0,-999.0,92,-99.99,,,0.00,weatherlink.com 1.10,2013-03-19 04:42:00,
2013-03-18 23:57:00,66.8,65.0,26.26,ENE,65,2.0,-999.0,92,-99.99,,,0.00,weatherlink.com 1.10,2013-03-19 04:57:00,